KSRRKELP

Guest
Details From KSRR - Sierra Blanca Rgnl
To KELP - El Paso Intl
Flight Number -
Tags Generated
Created
Modified
Stats Distance 108 nm / 200 km
Max Altitude 0 ft / 0 m
Waypoints 2
Social Downloads 0
Likes 0
Share VATSIM

Download

Looking for another format? Having issues loading an existing format? Contact us
Advertisement - Login to hide

Notes

Generated

Route

KSRR KELP

ID Type Via Altitude Latitude Longitude Leg Dist Tot Dist Heading (true) Name
O KSRR APT - 0 ft / 0 m 33.46399˚ -105.53072˚ - 0 nm - SIERRA BLANCA RGNL
O KELP APT - 0 ft / 0 m 31.80572˚ -106.36983˚ 108 nm 108 nm 203° / 203° El Paso Intl

Altitude Profile

Advertisement - Login to hide

KSRR

Details ICAO KSRR (SRR)
Name SIERRA BLANCA RGNL
Region United States
Timezone America/Denver (UTC-6.0)
Stats Elevation 6,814 ft / 2,077 m (AMSL)
Location 33.460560° -105.528642°
Runways 2
Magnetic Variation 7.863° E

METAR

KSRR 270255Z AUTO 21006KT 10SM CLR 22/M06 A3007 RMK AO2

Decode

TAF

Not found

Departure Runways

ID Width Length Bearing (true) Bearing (mag) Surface Threshold Offset Overrun Length
06 100 ft / 30 m 8,086 ft / 2,465 m 71.30° 63.44° Asphalt 0 ft / 0 m 0 ft / 0 m
12 75 ft / 23 m 6,500 ft / 1,981 m 129.94° 122.08° Asphalt 0 ft / 0 m 0 ft / 0 m
24 100 ft / 30 m 8,086 ft / 2,465 m 251.32° 243.46° Asphalt 0 ft / 0 m 0 ft / 0 m
30 75 ft / 23 m 6,500 ft / 1,981 m 309.95° 302.09° Asphalt 0 ft / 0 m 0 ft / 0 m

KELP

Details ICAO KELP (ELP)
Name El Paso Intl
Region United States
Timezone America/Denver (UTC-6.0)
Stats Elevation 3,958 ft / 1,206 m (AMSL)
Location 31.806535° -106.374581°
Runways 3
Magnetic Variation 8.065° E

METAR

KELP 270351Z 27014G20KT 10SM SCT180 SCT220 BKN250 34/M03 A2981 RMK AO2 SLP009 T03391033

Decode

TAF

KELP 270339Z 2704/2724 20008KT P6SM SCT180 BKN250 FM270900 27008KT P6SM SCT130 SCT250 FM271800 24013G23KT P6SM FEW100 SCT250

Decode

Destination Runways

ID Width Length Bearing (true) Bearing (mag) Surface Threshold Offset Overrun Length
04 150 ft / 46 m 12,021 ft / 3,664 m 49.85° 41.78° Asphalt 0 ft / 0 m 1,000 ft / 305 m
08L 75 ft / 23 m 5,482 ft / 1,671 m 88.32° 80.25° Asphalt 0 ft / 0 m 0 ft / 0 m
08R 150 ft / 46 m 9,007 ft / 2,746 m 93.32° 85.25° Asphalt 0 ft / 0 m 3,100 ft / 945 m
22 150 ft / 46 m 12,021 ft / 3,664 m 229.87° 221.80° Asphalt 0 ft / 0 m 0 ft / 0 m
26L 150 ft / 46 m 9,007 ft / 2,746 m 273.34° 265.27° Asphalt 0 ft / 0 m 0 ft / 0 m
26R 75 ft / 23 m 5,482 ft / 1,671 m 268.33° 260.26° Asphalt 0 ft / 0 m 0 ft / 0 m

Approach Navaids

Runway Type Ident Frequency Range Bearing (true) Bearing (mag) Slope Elevation
04 Localiser IETF 111.50 MHz 18 nm / 33 km 49.87° 41.80° - 3,950 ft / 1,204 m (AMSL)
04 DME IETF 111.50 MHz 18 nm / 33 km - - - 3,926 ft / 1,197 m (AMSL)
22 Localiser IELP 111.50 MHz 18 nm / 33 km 229.85° 221.78° - 3,911 ft / 1,192 m (AMSL)
22 Glidescope IELP 111.50 MHz 10 nm / 19 km 229.86° 221.79° 3.00° 3,940 ft / 1,201 m (AMSL)
22 DME IELP 111.50 MHz 18 nm / 33 km - - - 3,926 ft / 1,197 m (AMSL)